Regional Weather Roundup
Issued by NWS

Home | Current Version | Previous Version | Graphics & Text | Print | Product List | Glossary On
Versions: 1 2 3 4 5 6 7 8 9 10 11 12 13 14 15 16 17 18 19 20 21 22 23 24 25 26 27
000
ASUS45 KBOU 212007
RWRCO

WEATHER ROUNDUP FOR COLORADO
NATIONAL WEATHER SERVICE DENVER/BOULDER CO
200 PM MDT SAT OCT 21 2017

NOTE: "FAIR" INDICATES FEW OR NO CLOUDS BELOW 12000 FEET WITH NO
SIGNIFICANT WEATHER AND/OR OBSTRUCTIONS TO VISIBILITY.

COZ001>005-013-030-031-212100-
...NORTHWEST COLORADO...

CITY           SKY/WX    TMP DP  RH WIND       PRES   REMARKS
CRAIG          FAIR      38  25  59 SW12      30.17S
HAYDEN         FAIR      37  23  56 W6        30.18S
MEEKER         FAIR      42  25  50 VRB6      30.17F
RABBIT EARS PA CLOUDY    19  18  93 W9G20     30.12S WCI   9
STEAMBOAT SPGS CLOUDY    34  22  61 W6        30.17R WCI  29
WALDEN         NOT AVBL
$$

COZ006>008-011-212100-
...WEST CENTRAL VALLEYS...

CITY           SKY/WX    TMP DP  RH WIND       PRES   REMARKS
GRAND JUNCTION FAIR      53  15  22 NW7       30.16F
MONTROSE       FAIR      50   9  19 CALM      30.18F
EAGLE          FAIR      42  16  34 SW13      30.17F
RIFLE          FAIR      48  18  30 VRB5      30.16F
DELTA          FAIR      56  -1   9 W12G17    30.16R
NUCLA          FAIR      52   1  12 NW5       30.20S
$$

COZ017>023-064>068-212100-
...SOUTHWEST COLORADO...

CITY           SKY/WX    TMP DP  RH WIND       PRES   REMARKS
DURANGO        FAIR      54   2  12 SW21G29   30.06F
CORTEZ         FAIR      55   3  12 NW13      30.15F
PAGOSA SPRINGS FAIR      52  -4  10 S16G24    30.09R
TELLURIDE      NOT AVBL
WOLF CREEK PAS FAIR      32   9  37 S12G22    30.23R WCI  23
$$

COZ009-010-012-014-032>034-037-058>063-212100-
...CENTRAL COLORADO...

CITY           SKY/WX    TMP DP  RH WIND       PRES   REMARKS
ASPEN          FAIR      37  17  44 N3        30.16S
BUENA VISTA    FAIR      43  -1  15 N5G16     30.09R
COPPER MTN     FAIR      23  12  63 MISG      30.14R
BERTHOUD PASS  FAIR       9   0  66 NW39G48   30.04F WCI -17
COTTONWOOD PAS FAIR      37   9  30 NW8G25    30.12R
GUNNISON       FAIR      42  10  27 SW12G24   30.14S
KREMMLING      PTSUNNY   45  16  31 W8G17     30.16S
LEADVILLE      FAIR      27   9  46 NW18G26   30.13S WCI  14
MONARCH PASS   FAIR      21  10  63 W31G40    30.23R WCI   3
SALIDA         FAIR      48   9  20 W17G26    30.15S
SUNLIGHT       FAIR      23  18  80 MISG      30.21F
WILKERSON PASS FAIR      32   5  32 W6        30.14S WCI  26
$$

COZ069>075-212100-
...SAN LUIS VALLEY/SANGRE DE CRISTO MOUNTAINS...

CITY           SKY/WX    TMP DP  RH WIND       PRES   REMARKS
ALAMOSA        FAIR      51  15  23 N12G25    30.06S
DEL NORTE      FAIR      52  17  25 E13G20    30.04F
LA VETA PASS   CLOUDY    41  28  60 N7G17     30.22S
SAGUACHE       FAIR      45  10  24 NW20G25   30.12S
$$

COZ035-036-038>040-212100-
...NORTHERN COLORADO FRONT RANGE...

CITY           SKY/WX    TMP DP  RH WIND       PRES   REMARKS
DENVER INTL AP FAIR      52   8  17 W15G28    30.04R
DMNS CITY PARK   N/A     51   7  16 N13G23    30.04F
AURORA         MOSUNNY   52   4  14 NW18G35   30.04S
FRONT RANGE AP MOSUNNY   54   9  16 S16G32    30.05S
ERIE MUNI ARPT FAIR      53   5  14 W18G26    30.09S
BOULDER MUN AP FAIR      52  10  19 W23       30.04S
CENTENNIAL     FAIR      52   3  13 W26G33    30.03F
BROOMFIELD     MOSUNNY   52  10  19 W9G18     30.06F
FORT COLLINS   FAIR      52  14  22 NW23G29   30.05S
LONGMONT       FAIR      57  11  15 NW6       30.05S
$$

COZ041-046-047-076>085-087-088-212100-
...PIKES PEAK/PALMER DIVIDE AND SOUTHERN FOOTHILLS...

CITY           SKY/WX    TMP DP  RH WIND       PRES   REMARKS
COLO. SPRINGS  FAIR      55  11  17 N17G24    30.02F
A. F. ACADEMY  FAIR      50   7  17 NW6       30.03S
SCHRIEVER AFB  FAIR      52   4  14 N15G22    30.02S
CHEYENNE MTN   FAIR      52   8  17 SE12G20   29.97F
ELLICOTT         N/A    N/A N/A N/A N21G29    30.01R
FALCON         FAIR      50   3  15 N16G23    30.04S
FORT CARSON    FAIR      55   9  15 W13       29.99F
LIMON          FAIR      54   4  13 NW24G37   30.01R
MONUMENT HILL  FAIR      45  10  24 N10G23    30.07R
CANON CITY     FAIR      61  14  16 SW10      29.98F
WALSENBURG     FAIR      57  25  28 N3        30.02S
TRINIDAD       FAIR      57  29  34 NE12      30.01S
$$

COZ042>045-048>051-090-091-212100-
...NORTHEAST COLORADO...

CITY           SKY/WX    TMP DP  RH WIND       PRES   REMARKS
GREELEY ARPT   FAIR      53  16  23 W24       30.02R
AKRON          FAIR      55  14  19 W29G36    29.98S
BURLINGTON     FAIR      59  17  19 N24G43    29.97S
WRAY           FAIR      61  18  18 NW22G33   29.96R
YUMA           NOT AVBL
STERLING       FAIR      59  19  21 NW17G33   29.95S
HOLYOKE        FAIR      61  21  21 NW16G25   29.94S
FORT MORGAN    FAIR      56   8  14 W25G38    30.00S
$$

COZ086-089-092>099-212100-
...SOUTHEAST COLORADO...

CITY           SKY/WX    TMP DP  RH WIND       PRES   REMARKS
PUEBLO         FAIR      61  21  21 S8        29.98S
LA JUNTA       FAIR      64  14  14 N12G31    29.99R
LAMAR          PTSUNNY   64  16  15 N17G26    29.95R
SPRINGFIELD      N/A     60  22  23 N24G33    29.97R
$$




USA.gov is the U.S. government's official web portal to all federal, state and local government web resources and services.